,,,PA_Meas_PMT16A,,PR_Meas_QMR101_102,,RH_Meas_QMH101,,SR_Meas_QMS101,,TA_Meas_QMH101,,GenWind,,GenWind,
date,time,status,PA,status,PR,status,RH,status,SR,status,TA,status,DirAvg,status,SpdAvg,
2011-07-31, 00:00:04,VALID,999.813,VALID,0,VALID,80.9198,VALID,0,VALID,25.0284,VALID,142,VALID,1.69531,
2011-07-31, 00:01:04,VALID,999.8,VALID,0,VALID,80.7061,VALID,0,VALID,25.0265,VALID,134,VALID,1.4293,
2011-07-31, 00:02:04,VALID,999.788,VALID,0,VALID,80.5535,VALID,0,VALID,25.0265,VALID,141,VALID,1.58594,
2011-07-31, 00:03:04,VALID,999.766,VALID,0,VALID,80.6222,VALID,0,VALID,25.0479,VALID,143,VALID,1.53828,
2011-07-31, 00:04:04,VALID,999.737,VALID,0,VALID,80.7061,VALID,0,VALID,25.0265,VALID,136,VALID,1.49844,
2011-07-31, 00:05:04,VALID,999.68,VALID,0,VALID,80.7595,VALID,0,VALID,25.0069,VALID,128,VALID,1.64063,
2011-07-31, 00:06:04,VALID,999.686,VALID,0,VALID,80.8511,VALID,0,VALID,24.9874,VALID,127,VALID,1.82578,
2011-07-31, 00:07:04,VALID,999.645,VALID,0,VALID,81.0342,VALID,0,VALID,24.9698,VALID,132,VALID,1.58086,
2011-07-31, 00:08:04,VALID,999.647,VALID,0,VALID,81.2097,VALID,0,VALID,24.9484,VALID,130,VALID,1.71406,
2011-07-31, 00:09:04,VALID,999.638,VALID,0,VALID,81.3699,VALID,0,VALID,24.9308,VALID,131,VALID,1.75469,
2011-07-31, 00:10:04,VALID,999.651,VALID,0,VALID,81.553,VALID,0,VALID,24.9112,VALID,137,VALID,2.00391,
2011-07-31, 00:11:04,VALID,999.637,VALID,0,VALID,81.7132,VALID,0,VALID,24.8917,VALID,140,VALID,2.06094,
2011-07-31, 00:12:04,VALID,999.626,VALID,0,VALID,81.7819,VALID,0,VALID,24.8703,VALID,135,VALID,2.15781,
2011-07-31, 00:13:04,VALID,999.64,VALID,0,VALID,81.7438,VALID,0,VALID,24.8917,VALID,136,VALID,2.20195,
2011-07-31, 00:14:04,VALID,999.589,VALID,0,VALID,81.4309,VALID,0,VALID,24.8917,VALID,134,VALID,1.98359,
2011-07-31, 00:15:04,VALID,999.609,VALID,0,VALID,81.1334,VALID,0,VALID,24.9093,VALID,134,VALID,2.36602,
2011-07-31, 00:16:04,VALID,999.577,VALID,0,VALID,80.9198,VALID,0,VALID,24.9484,VALID,141,VALID,1.46797,
2011-07-31, 00:17:04,VALID,999.537,VALID,0,VALID,80.8969,VALID,0,VALID,24.9893,VALID,132,VALID,1.4457,
2011-07-31, 00:18:04,VALID,999.533,VALID,0,VALID,79.9279,VALID,0,VALID,24.9679,VALID,137,VALID,2.44336,
2011-07-31, 00:19:04,VALID,999.548,VALID,0,VALID,80.4772,VALID,0,VALID,25.0284,VALID,154,VALID,1.64219,
2011-07-31, 00:20:04,VALID,999.523,VALID,0,VALID,79.9279,VALID,0,VALID,25.0284,VALID,131,VALID,1.77656,
2011-07-31, 00:21:04,VALID,999.514,VALID,0,VALID,79.7829,VALID,0,VALID,25.0284,VALID,129,VALID,1.86602,
2011-07-31, 00:22:04,VALID,999.491,VALID,0,VALID,79.6227,VALID,0,VALID,25.0265,VALID,132,VALID,1.75977,
2011-07-31, 00:23:04,VALID,999.506,VALID,0,VALID,79.7448,VALID,0,VALID,25.0284,VALID,140,VALID,1.72969,
2011-07-31, 00:24:04,VALID,999.506,VALID,0,VALID,79.493,VALID,0,VALID,25.0088,VALID,150,VALID,1.88594,
2011-07-31, 00:25:04,VALID,999.521,VALID,0,VALID,79.6075,VALID,0,VALID,24.9874,VALID,140,VALID,1.26328,
2011-07-31, 00:26:04,VALID,999.484,VALID,0,VALID,78.7758,VALID,0,VALID,25.0069,VALID,135,VALID,2.84102,
2011-07-31, 00:27:04,VALID,999.51,VALID,0,VALID,78.4401,VALID,0,VALID,25.126,VALID,138,VALID,2.11289,
2011-07-31, 00:28:04,VALID,999.496,VALID,0,VALID,78.3715,VALID,0,VALID,25.1845,VALID,147,VALID,1.57734,
2011-07-31, 00:29:04,VALID,999.499,VALID,0,VALID,78.3638,VALID,0,VALID,25.204,VALID,155,VALID,1.91211,
2011-07-31, 00:30:04,VALID,999.499,VALID,0,VALID,77.8755,VALID,0,VALID,25.2236,VALID,150,VALID,2.19062,
2011-07-31, 00:31:04,VALID,999.48,VALID,0,VALID,77.8908,VALID,0,VALID,25.2431,VALID,134,VALID,2.03125,
2011-07-31, 00:32:04,VALID,999.497,VALID,0,VALID,77.9289,VALID,0,VALID,25.2431,VALID,137,VALID,2.05859,
2011-07-31, 00:33:04,VALID,999.514,VALID,0,VALID,77.7535,VALID,0,VALID,25.2217,VALID,148,VALID,2.28672,
2011-07-31, 00:34:04,VALID,999.472,VALID,0,VALID,77.845,VALID,0,VALID,25.2607,VALID,151,VALID,2.05938,
2011-07-31, 00:35:04,VALID,999.468,VALID,0,VALID,77.8679,VALID,0,VALID,25.2821,VALID,143,VALID,2.39805,
2011-07-31, 00:36:04,VALID,999.432,VALID,0,VALID,77.9976,VALID,0,VALID,25.2412,VALID,137,VALID,2.06094,
2011-07-31, 00:37:04,VALID,999.428,VALID,0,VALID,78.2875,VALID,0,VALID,25.1826,VALID,133,VALID,1.99883,
2011-07-31, 00:38:04,VALID,999.406,VALID,0,VALID,78.5546,VALID,0,VALID,25.1436,VALID,130,VALID,2.68789,
2011-07-31, 00:39:04,VALID,999.37,VALID,0,VALID,78.9818,VALID,0,VALID,25.1241,VALID,134,VALID,2.79141,
2011-07-31, 00:40:04,VALID,999.337,VALID,0,VALID,79.3862,VALID,0,VALID,25.0655,VALID,135,VALID,2.09648,
2011-07-31, 00:41:04,VALID,999.35,VALID,0,VALID,79.76,VALID,0,VALID,25.0284,VALID,129,VALID,2.15313,
2011-07-31, 00:42:04,VALID,999.365,VALID,0,VALID,79.9355,VALID,0,VALID,24.9698,VALID,133,VALID,2.08555,
2011-07-31, 00:43:04,VALID,999.361,VALID,0,VALID,80.05,VALID,0,VALID,24.9503,VALID,134,VALID,1.82461,
2011-07-31, 00:44:04,VALID,999.392,VALID,0,VALID,80.1415,VALID,0,VALID,24.9308,VALID,133,VALID,1.91992,
2011-07-31, 00:45:04,VALID,999.391,VALID,0,VALID,80.4391,VALID,0,VALID,24.8917,VALID,135,VALID,1.90117,
2011-07-31, 00:46:04,VALID,999.399,VALID,0,VALID,80.5612,VALID,0,VALID,24.8527,VALID,131,VALID,2.33242,
2011-07-31, 00:47:04,VALID,999.391,VALID,0,VALID,80.6985,VALID,0,VALID,24.8527,VALID,131,VALID,2.3168,
2011-07-31, 00:48:04,VALID,999.409,VALID,0,VALID,81.1105,VALID,0,VALID,24.8332,VALID,130,VALID,1.84141,
2011-07-31, 00:49:04,VALID,999.398,VALID,0,VALID,81.1715,VALID,0,VALID,24.7941,VALID,125,VALID,1.63242,
2011-07-31, 00:50:04,VALID,999.382,VALID,0,VALID,81.3241,VALID,0,VALID,24.7551,VALID,127,VALID,1.89883,
2011-07-31, 00:51:04,VALID,999.382,VALID,0,VALID,81.4386,VALID,0,VALID,24.7551,VALID,131,VALID,2.71328,
2011-07-31, 00:52:04,VALID,999.403,VALID,0,VALID,81.4691,VALID,0,VALID,24.7551,VALID,141,VALID,2.35352,
2011-07-31, 00:53:04,VALID,999.398,VALID,0,VALID,81.5835,VALID,0,VALID,24.7746,VALID,134,VALID,2.09219,
2011-07-31, 00:54:04,VALID,999.412,VALID,0,VALID,81.7666,VALID,0,VALID,24.716,VALID,143,VALID,2.49336,
2011-07-31, 00:55:04,VALID,999.43,VALID,0,VALID,81.9116,VALID,0,VALID,24.716,VALID,133,VALID,2.7418,
2011-07-31, 00:56:04,VALID,999.411,VALID,0,VALID,82.0642,VALID,0,VALID,24.6946,VALID,131,VALID,2.95508,
2011-07-31, 00:57:04,VALID,999.434,VALID,0,VALID,82.1405,VALID,0,VALID,24.6965,VALID,141,VALID,3.05078,
2011-07-31, 00:58:04,VALID,999.421,VALID,0,VALID,82.0947,VALID,0,VALID,24.716,VALID,139,VALID,1.6793,
2011-07-31, 00:59:04,VALID,999.363,VALID,0,VALID,82.1405,VALID,0,VALID,24.6965,VALID,127,VALID,1.52891,
2011-07-31, 01:00:04,VALID,999.343,VALID,0,VALID,82.2626,VALID,0,VALID,24.677,VALID,132,VALID,1.94258,
2011-07-31, 01:01:04,VALID,999.335,VALID,0,VALID,82.4228,VALID,0,VALID,24.638,VALID,136,VALID,1.8957,
2011-07-31, 01:02:04,VALID,999.276,VALID,0,VALID,82.4152,VALID,0,VALID,24.6184,VALID,132,VALID,1.52813,
2011-07-31, 01:03:04,VALID,999.232,VALID,0,VALID,82.4915,VALID,0,VALID,24.5989,VALID,129,VALID,1.8125,
2011-07-31, 01:04:04,VALID,999.271,VALID,0,VALID,82.5143,VALID,0,VALID,24.5989,VALID,127,VALID,1.44687,
2011-07-31, 01:05:04,VALID,999.249,VALID,0,VALID,82.4915,VALID,0,VALID,24.5385,VALID,143,VALID,1.49766,
2011-07-31, 01:06:04,VALID,999.204,VALID,0,VALID,82.4991,VALID,0,VALID,24.5404,VALID,132,VALID,1.9832,
2011-07-31, 01:07:04,VALID,999.245,VALID,0,VALID,82.5296,VALID,0,VALID,24.5404,VALID,140,VALID,1.6207,
2011-07-31, 01:08:04,VALID,999.218,VALID,0,VALID,82.5143,VALID,0,VALID,24.5404,VALID,132,VALID,1.78398,
2011-07-31, 01:09:04,VALID,999.197,VALID,0,VALID,82.4228,VALID,0,VALID,24.5404,VALID,136,VALID,1.93438,
2011-07-31, 01:10:04,VALID,999.191,VALID,0,VALID,82.4075,VALID,0,VALID,24.5404,VALID,118,VALID,1.88867,
2011-07-31, 01:11:04,VALID,999.153,VALID,0,VALID,82.2244,VALID,0,VALID,24.5794,VALID,126,VALID,2.76797,
2011-07-31, 01:12:04,VALID,999.174,VALID,0,VALID,82.1176,VALID,0,VALID,24.6184,VALID,130,VALID,2.25625,
2011-07-31, 01:13:04,VALID,999.177,VALID,0,VALID,82.0642,VALID,0,VALID,24.638,VALID,127,VALID,2.20703,
2011-07-31, 01:14:04,VALID,999.153,VALID,0,VALID,81.8582,VALID,0,VALID,24.6166,VALID,134,VALID,1.80156,
2011-07-31, 01:15:04,VALID,999.145,VALID,0,VALID,81.7132,VALID,0,VALID,24.677,VALID,135,VALID,1.98711,
2011-07-31, 01:16:04,VALID,999.122,VALID,0,VALID,81.5301,VALID,0,VALID,24.677,VALID,144,VALID,1.88047,
2011-07-31, 01:17:04,VALID,999.106,VALID,0,VALID,81.3775,VALID,0,VALID,24.7356,VALID,141,VALID,1.45391,
2011-07-31, 01:18:04,VALID,999.106,VALID,0,VALID,81.2478,VALID,0,VALID,24.716,VALID,138,VALID,1.9,
2011-07-31, 01:19:04,VALID,999.088,VALID,0,VALID,81.0113,VALID,0,VALID,24.716,VALID,136,VALID,2.16758,
2011-07-31, 01:20:04,VALID,999.078,VALID,0,VALID,81.0266,VALID,0,VALID,24.7551,VALID,137,VALID,1.97578,
2011-07-31, 01:21:04,VALID,999.076,VALID,0,VALID,81.1334,VALID,0,VALID,24.7551,VALID,138,VALID,2.05117,
2011-07-31, 01:22:04,VALID,999.055,VALID,0,VALID,81.3165,VALID,0,VALID,24.7356,VALID,148,VALID,1.65234,
2011-07-31, 01:23:04,VALID,999.059,VALID,0,VALID,81.5988,VALID,0,VALID,24.6965,VALID,146,VALID,1.68477,
2011-07-31, 01:24:04,VALID,999.035,VALID,0,VALID,81.7438,VALID,0,VALID,24.6965,VALID,146,VALID,2.1957,
2011-07-31, 01:25:04,VALID,999.044,VALID,0,VALID,81.7819,VALID,0,VALID,24.716,VALID,152,VALID,2.12305,
2011-07-31, 01:26:04,VALID,999.003,VALID,0,VALID,81.7972,VALID,0,VALID,24.6946,VALID,149,VALID,1.70742,
2011-07-31, 01:27:04,VALID,998.956,VALID,0,VALID,81.8811,VALID,0,VALID,24.6751,VALID,135,VALID,1.64531,
2011-07-31, 01:28:04,VALID,998.951,VALID,0,VALID,81.9879,VALID,0,VALID,24.6575,VALID,134,VALID,1.48594,
2011-07-31, 01:29:04,VALID,998.946,VALID,0,VALID,82.11,VALID,0,VALID,24.638,VALID,152,VALID,1.66758,
2011-07-31, 01:30:04,VALID,998.948,VALID,0,VALID,82.3007,VALID,0,VALID,24.6184,VALID,170,VALID,1.64844,
2011-07-31, 01:31:04,VALID,998.944,VALID,0,VALID,82.2931,VALID,0,VALID,24.5989,VALID,161,VALID,1.58086,
2011-07-31, 01:32:04,VALID,998.909,VALID,0,VALID,82.377,VALID,0,VALID,24.6008,VALID,146,VALID,1.75859,
2011-07-31, 01:33:04,VALID,998.908,VALID,0,VALID,82.4991,VALID,0,VALID,24.558,VALID,156,VALID,1.7418,
2011-07-31, 01:34:05,VALID,998.881,VALID,0,VALID,82.4915,VALID,0,VALID,24.5385,VALID,147,VALID,1.62891,
2011-07-31, 01:35:05,VALID,998.9,VALID,0,VALID,82.5601,VALID,0,VALID,24.5599,VALID,145,VALID,1.90586,
2011-07-31, 01:36:05,VALID,998.898,VALID,0,VALID,82.5449,VALID,0,VALID,24.5599,VALID,139,VALID,1.71523,
2011-07-31, 01:37:05,VALID,998.907,VALID,0,VALID,82.5983,VALID,0,VALID,24.5404,VALID,139,VALID,1.58789,
2011-07-31, 01:38:05,VALID,998.918,VALID,0,VALID,82.7966,VALID,0,VALID,24.5013,VALID,139,VALID,1.69922,
2011-07-31, 01:39:05,VALID,998.925,VALID,0,VALID,82.9645,VALID,0,VALID,24.4428,VALID,142,VALID,1.30352,
2011-07-31, 01:40:05,VALID,998.934,VALID,0,VALID,83.0942,VALID,0,VALID,24.4233,VALID,137,VALID,1.24102,
2011-07-31, 01:41:05,VALID,998.924,VALID,0,VALID,83.2163,VALID,0,VALID,24.3842,VALID,139,VALID,1.38789,
2011-07-31, 01:42:05,VALID,998.859,VALID,0,VALID,83.1323,VALID,0,VALID,24.4037,VALID,137,VALID,1.34648,
2011-07-31, 01:43:05,VALID,998.849,VALID,0,VALID,83.0026,VALID,0,VALID,24.4233,VALID,127,VALID,1.30859,
2011-07-31, 01:44:05,VALID,998.832,VALID,0,VALID,82.9187,VALID,0,VALID,24.4233,VALID,117,VALID,1.20664,
2011-07-31, 01:45:05,VALID,998.797,VALID,0,VALID,83.0637,VALID,0,VALID,24.4037,VALID,125,VALID,1.11484,
2011-07-31, 01:46:05,VALID,998.766,VALID,0,VALID,83.1323,VALID,0,VALID,24.3647,VALID,121,VALID,0.992578,
2011-07-31, 01:47:05,VALID,998.764,VALID,0,VALID,83.2315,VALID,0,VALID,24.3452,VALID,146,VALID,1.0668,
2011-07-31, 01:48:05,VALID,998.752,VALID,0,VALID,83.3612,VALID,0,VALID,24.3452,VALID,160,VALID,1.02305,
2011-07-31, 01:49:05,VALID,998.766,VALID,0,VALID,83.3307,VALID,0,VALID,24.3647,VALID,167,VALID,0.688281,
2011-07-31, 01:50:05,VALID,998.778,VALID,0,VALID,83.3612,VALID,0,VALID,24.3238,VALID,165,VALID,0.916797,
2011-07-31, 01:51:05,VALID,998.772,VALID,0,VALID,83.4223,VALID,0,VALID,24.3452,VALID,154,VALID,1.18125,
2011-07-31, 01:52:05,VALID,998.768,VALID,0,VALID,83.346,VALID,0,VALID,24.3433,VALID,156,VALID,0.677734,
2011-07-31, 01:53:05,VALID,998.744,VALID,0,VALID,83.3155,VALID,0,VALID,24.3647,VALID,162,VALID,0.947656,
2011-07-31, 01:54:05,VALID,998.755,VALID,0,VALID,83.3155,VALID,0,VALID,24.3647,VALID,162,VALID,0.94375,
2011-07-31, 01:55:05,VALID,998.72,VALID,0,VALID,83.3383,VALID,0,VALID,24.3824,VALID,157,VALID,0.894141,
2011-07-31, 01:56:05,VALID,998.75,VALID,0,VALID,83.2926,VALID,0,VALID,24.3842,VALID,157,VALID,0.686719,
2011-07-31, 01:57:05,VALID,998.712,VALID,0,VALID,83.262,VALID,0,VALID,24.4037,VALID,157,VALID,0.466797,
2011-07-31, 01:58:05,VALID,998.728,VALID,0,VALID,83.201,VALID,0,VALID,24.4037,VALID,157,VALID,0.591406,
2011-07-31, 01:59:05,VALID,998.738,VALID,0,VALID,83.1247,VALID,0,VALID,24.3824,VALID,157,VALID,0.555859,
2011-07-31, 02:00:05,VALID,998.74,VALID,0,VALID,83.3307,VALID,0,VALID,24.4037,VALID,157,VALID,0.790234,
2011-07-31, 02:01:05,VALID,998.762,VALID,0,VALID,83.3536,VALID,0,VALID,24.3824,VALID,157,VALID,0.542969,
2011-07-31, 02:02:05,VALID,998.737,VALID,0,VALID,83.2086,VALID,0,VALID,24.3842,VALID,157,VALID,0.544141,
2011-07-31, 02:03:05,VALID,998.766,VALID,0,VALID,83.3231,VALID,0,VALID,24.3842,VALID,157,VALID,0.402734,
2011-07-31, 02:04:05,VALID,998.783,VALID,0,VALID,83.3307,VALID,0,VALID,24.3452,VALID,157,VALID,0.298047,
2011-07-31, 02:05:05,VALID,998.799,VALID,0,VALID,83.5825,VALID,0,VALID,24.3257,VALID,157,VALID,0.736719,
2011-07-31, 02:06:05,VALID,998.767,VALID,0,VALID,83.7274,VALID,0,VALID,24.3257,VALID,157,VALID,0.555859,
2011-07-31, 02:07:05,VALID,998.779,VALID,0,VALID,83.7656,VALID,0,VALID,24.3257,VALID,157,VALID,0.925781,
2011-07-31, 02:08:05,VALID,998.762,VALID,0,VALID,83.7656,VALID,0,VALID,24.3452,VALID,146,VALID,1.1543,
2011-07-31, 02:09:05,VALID,998.77,VALID,0,VALID,83.6206,VALID,0,VALID,24.3238,VALID,140,VALID,0.819531,
2011-07-31, 02:10:05,VALID,998.766,VALID,0,VALID,83.6512,VALID,0,VALID,24.3452,VALID,124,VALID,0.571094,
2011-07-31, 02:11:05,VALID,998.755,VALID,0,VALID,83.7274,VALID,0,VALID,24.3043,VALID,120,VALID,0.341406,
2011-07-31, 02:12:05,VALID,998.735,VALID,0,VALID,83.8266,VALID,0,VALID,24.3062,VALID,120,VALID,0.288672,
2011-07-31, 02:13:05,VALID,998.719,VALID,0,VALID,83.8724,VALID,0,VALID,24.2866,VALID,120,VALID,0.0964844,
2011-07-31, 02:14:05,VALID,998.729,VALID,0,VALID,83.9563,VALID,0,VALID,24.2671,VALID,146,VALID,0.544922,
2011-07-31, 02:15:05,VALID,998.745,VALID,0,VALID,84.1089,VALID,0,VALID,24.2281,VALID,157,VALID,0.601563,
2011-07-31, 02:16:05,VALID,998.736,VALID,0,VALID,84.2997,VALID,0,VALID,24.2476,VALID,184,VALID,0.863281,
2011-07-31, 02:17:05,VALID,998.792,VALID,0,VALID,84.2081,VALID,0,VALID,24.2671,VALID,184,VALID,0.68125,
2011-07-31, 02:18:05,VALID,998.788,VALID,0,VALID,84.0403,VALID,0,VALID,24.3062,VALID,185,VALID,0.580078,
2011-07-31, 02:19:05,VALID,998.787,VALID,0,VALID,83.9182,VALID,0,VALID,24.3062,VALID,184,VALID,0.810547,
2011-07-31, 02:20:05,VALID,998.768,VALID,0,VALID,83.8037,VALID,0,VALID,24.3257,VALID,184,VALID,0.490234,
2011-07-31, 02:21:05,VALID,998.805,VALID,0,VALID,83.6588,VALID,0,VALID,24.3452,VALID,184,VALID,0.426562,
2011-07-31, 02:22:05,VALID,998.773,VALID,0,VALID,83.5977,VALID,0,VALID,24.3452,VALID,147,VALID,0.721094,
2011-07-31, 02:23:05,VALID,998.804,VALID,0,VALID,83.5215,VALID,0,VALID,24.3647,VALID,154,VALID,1.02188,
2011-07-31, 02:24:05,VALID,998.781,VALID,0,VALID,83.3689,VALID,0,VALID,24.4037,VALID,172,VALID,1.26641,
2011-07-31, 02:25:05,VALID,998.757,VALID,0,VALID,83.1323,VALID,0,VALID,24.4818,VALID,173,VALID,1.57578,
2011-07-31, 02:26:05,VALID,998.73,VALID,0,VALID,82.8424,VALID,0,VALID,24.5209,VALID,170,VALID,1.18984,
2011-07-31, 02:27:05,VALID,998.764,VALID,0,VALID,82.5983,VALID,0,VALID,24.5385,VALID,173,VALID,0.836328,
2011-07-31, 02:28:05,VALID,998.744,VALID,0,VALID,82.4686,VALID,0,VALID,24.5385,VALID,173,VALID,0.905078,
2011-07-31, 02:29:05,VALID,998.789,VALID,0,VALID,82.377,VALID,0,VALID,24.5794,VALID,173,VALID,1.05273,
2011-07-31, 02:30:05,VALID,998.756,VALID,0,VALID,82.3007,VALID,0,VALID,24.6184,VALID,173,VALID,1.22891,
2011-07-31, 02:31:05,VALID,998.774,VALID,0,VALID,82.11,VALID,0,VALID,24.638,VALID,181,VALID,1.39414,
2011-07-31, 02:32:05,VALID,998.771,VALID,0,VALID,82.0337,VALID,0,VALID,24.6575,VALID,177,VALID,1.57578,
2011-07-31, 02:33:05,VALID,998.793,VALID,0,VALID,82.0795,VALID,0,VALID,24.6575,VALID,169,VALID,1.7375,
2011-07-31, 02:34:05,VALID,998.776,VALID,0,VALID,82.1329,VALID,0,VALID,24.6575,VALID,171,VALID,1.99688,
2011-07-31, 02:35:05,VALID,998.748,VALID,0,VALID,82.0642,VALID,0,VALID,24.677,VALID,164,VALID,1.3125,
2011-07-31, 02:36:05,VALID,998.766,VALID,0,VALID,82.0184,VALID,0,VALID,24.638,VALID,154,VALID,1.20508,
2011-07-31, 02:37:05,VALID,998.761,VALID,0,VALID,82.11,VALID,0,VALID,24.6184,VALID,152,VALID,0.948047,
2011-07-31, 02:38:05,VALID,998.758,VALID,0,VALID,82.2702,VALID,0,VALID,24.5599,VALID,153,VALID,1.22187,
2011-07-31, 02:39:05,VALID,998.772,VALID,0,VALID,82.4915,VALID,0,VALID,24.4995,VALID,168,VALID,1.33047,
2011-07-31, 02:40:05,VALID,998.745,VALID,0,VALID,82.6898,VALID,0,VALID,24.5013,VALID,173,VALID,1.34648,
2011-07-31, 02:41:05,VALID,998.708,VALID,0,VALID,82.7356,VALID,0,VALID,24.4818,VALID,168,VALID,1.28242,
2011-07-31, 02:42:05,VALID,998.701,VALID,0,VALID,82.7509,VALID,0,VALID,24.4623,VALID,160,VALID,1.21523,
2011-07-31, 02:43:05,VALID,998.688,VALID,0,VALID,82.644,VALID,0,VALID,24.4818,VALID,141,VALID,0.958984,
2011-07-31, 02:44:05,VALID,998.715,VALID,0,VALID,82.6669,VALID,0,VALID,24.4818,VALID,140,VALID,0.933984,
2011-07-31, 02:45:05,VALID,998.685,VALID,0,VALID,82.644,VALID,0,VALID,24.4623,VALID,140,VALID,0.539453,
2011-07-31, 02:46:05,VALID,998.689,VALID,0,VALID,82.6822,VALID,0,VALID,24.4233,VALID,140,VALID,0.398438,
2011-07-31, 02:47:05,VALID,998.71,VALID,0,VALID,82.8272,VALID,0,VALID,24.3842,VALID,140,VALID,0,
2011-07-31, 02:48:05,VALID,998.724,VALID,0,VALID,83.1552,VALID,0,VALID,24.3433,VALID,140,VALID,0.563672,
2011-07-31, 02:49:05,VALID,998.73,VALID,0,VALID,83.3841,VALID,0,VALID,24.3452,VALID,140,VALID,0.369141,
2011-07-31, 02:50:05,VALID,998.726,VALID,0,VALID,83.4604,VALID,0,VALID,24.3257,VALID,140,VALID,0.503516,
2011-07-31, 02:51:05,VALID,998.737,VALID,0,VALID,83.3841,VALID,0,VALID,24.3043,VALID,143,VALID,0.546484,
2011-07-31, 02:52:05,VALID,998.728,VALID,0,VALID,83.468,VALID,0,VALID,24.3257,VALID,151,VALID,1.07969,
2011-07-31, 02:53:05,VALID,998.727,VALID,0,VALID,83.4146,VALID,0,VALID,24.3452,VALID,153,VALID,0.815625,
2011-07-31, 02:54:05,VALID,998.732,VALID,0,VALID,83.2163,VALID,0,VALID,24.3647,VALID,153,VALID,0.221094,
2011-07-31, 02:55:05,VALID,998.786,VALID,0,VALID,83.1552,VALID,0,VALID,24.3452,VALID,153,VALID,0.421484,
2011-07-31, 02:56:05,VALID,998.779,VALID,0,VALID,83.3231,VALID,0,VALID,24.3062,VALID,153,VALID,0.540625,
2011-07-31, 02:57:05,VALID,998.774,VALID,0,VALID,83.613,VALID,0,VALID,24.3062,VALID,153,VALID,0.310547,
2011-07-31, 02:58:05,VALID,998.787,VALID,0,VALID,83.6664,VALID,0,VALID,24.2866,VALID,153,VALID,0.354297,
2011-07-31, 02:59:05,VALID,998.815,VALID,0,VALID,83.4986,VALID,0,VALID,24.2866,VALID,153,VALID,0.485938,
2011-07-31, 03:00:05,VALID,998.816,VALID,0,VALID,83.3765,VALID,0,VALID,24.2281,VALID,153,VALID,0.670313,
2011-07-31, 03:01:05,VALID,998.795,VALID,0,VALID,83.819,VALID,0,VALID,24.1891,VALID,152,VALID,0.545313,
2011-07-31, 03:02:05,VALID,998.774,VALID,0,VALID,84.292,VALID,0,VALID,24.1696,VALID,97,VALID,0.573438,
2011-07-31, 03:03:05,VALID,998.812,VALID,0,VALID,83.8724,VALID,0,VALID,24.1305,VALID,97,VALID,0.311328,
2011-07-31, 03:04:05,VALID,998.8,VALID,0,VALID,83.4452,VALID,0,VALID,24.0329,VALID,97,VALID,0.0121094,
2011-07-31, 03:05:05,VALID,998.757,VALID,0,VALID,83.8266,VALID,0,VALID,23.9354,VALID,97,VALID,0.100781,
2011-07-31, 03:06:05,VALID,998.762,VALID,0,VALID,84.3912,VALID,0,VALID,23.8768,VALID,88,VALID,0.739062,
2011-07-31, 03:07:05,VALID,998.777,VALID,0,VALID,84.6506,VALID,0,VALID,23.7988,VALID,87,VALID,0.805469,
2011-07-31, 03:08:05,VALID,998.738,VALID,0,VALID,85.3755,VALID,0,VALID,23.7012,VALID,77,VALID,1.04375,
2011-07-31, 03:09:05,VALID,998.722,VALID,0,VALID,85.9019,VALID,0,VALID,23.6019,VALID,74,VALID,0.919141,
2011-07-31, 03:10:05,VALID,998.705,VALID,0,VALID,86.3215,VALID,0,VALID,23.5451,VALID,74,VALID,0.719531,
2011-07-31, 03:11:05,VALID,998.725,VALID,0,VALID,86.558,VALID,0,VALID,23.4458,VALID,74,VALID,0.608594,
2011-07-31, 03:12:05,VALID,998.663,VALID,0,VALID,86.8327,VALID,0,VALID,23.389,VALID,50,VALID,0.967188,
2011-07-31, 03:13:05,VALID,998.679,VALID,0,VALID,87.4583,VALID,0,VALID,23.3287,VALID,40,VALID,1.29648,
2011-07-31, 03:14:05,VALID,998.704,VALID,0,VALID,87.9085,VALID,0,VALID,23.35,VALID,40,VALID,0.898828,
2011-07-31, 03:15:05,VALID,998.72,VALID,0,VALID,87.9161,VALID,0,VALID,23.3323,VALID,40,VALID,0.688672,
2011-07-31, 03:16:05,VALID,998.739,VALID,0,VALID,88.0687,VALID,0,VALID,23.311,VALID,40,VALID,0.617969,
2011-07-31, 03:17:05,VALID,998.701,VALID,0,VALID,88.0763,VALID,0,VALID,23.2915,VALID,46,VALID,0.669531,
2011-07-31, 03:18:05,VALID,998.693,VALID,0,VALID,88.0534,VALID,0,VALID,23.2507,VALID,71,VALID,0.914844,
2011-07-31, 03:19:05,VALID,998.688,VALID,0,VALID,88.0687,VALID,0,VALID,23.1921,VALID,62,VALID,1.08828,
2011-07-31, 03:20:05,VALID,998.651,VALID,0,VALID,88.1526,VALID,0,VALID,23.0946,VALID,54,VALID,0.967969,
2011-07-31, 03:21:05,VALID,998.652,VALID,0,VALID,88.2976,VALID,0,VALID,23.0183,VALID,54,VALID,0.717188,
2011-07-31, 03:22:05,VALID,998.658,VALID,0,VALID,88.4654,VALID,0,VALID,22.8995,VALID,54,VALID,0.178516,
2011-07-31, 03:23:05,VALID,998.634,VALID,0,VALID,88.5799,VALID,0,VALID,22.7842,VALID,10,VALID,0.672266,
2011-07-31, 03:24:05,VALID,998.657,VALID,0,VALID,89.2437,VALID,0,VALID,22.7257,VALID,2,VALID,0.842969,
2011-07-31, 03:25:05,VALID,998.638,VALID,0,VALID,89.8235,VALID,0,VALID,22.7452,VALID,2,VALID,0.674219,
2011-07-31, 03:26:05,VALID,998.702,VALID,0,VALID,90.0982,VALID,0,VALID,22.7257,VALID,2,VALID,0.394922,
2011-07-31, 03:27:05,VALID,998.675,VALID,0,VALID,90.1211,VALID,0,VALID,22.6672,VALID,2,VALID,0.266016,
2011-07-31, 03:28:05,VALID,998.67,VALID,0,VALID,90.1821,VALID,0,VALID,22.6087,VALID,2,VALID,0.338281,
2011-07-31, 03:29:05,VALID,998.683,VALID,0,VALID,90.1897,VALID,0,VALID,22.5696,VALID,2,VALID,0,
2011-07-31, 03:30:05,VALID,998.642,VALID,0,VALID,90.1516,VALID,0,VALID,22.5111,VALID,2,VALID,0.210547,
2011-07-31, 03:31:05,VALID,998.635,VALID,0,VALID,90.2126,VALID,0,VALID,22.4721,VALID,2,VALID,0.700781,
2011-07-31, 03:32:05,VALID,998.638,VALID,0,VALID,90.5102,VALID,0,VALID,22.4526,VALID,17,VALID,0.857422,
2011-07-31, 03:33:05,VALID,998.649,VALID,0,VALID,90.7467,VALID,0,VALID,22.4526,VALID,17,VALID,0.696094,
2011-07-31, 03:34:05,VALID,998.624,VALID,0,VALID,90.9832,VALID,0,VALID,22.4721,VALID,17,VALID,1.03086,
2011-07-31, 03:35:05,VALID,998.639,VALID,0,VALID,91.174,VALID,0,VALID,22.5094,VALID,17,VALID,0.870703,
2011-07-31, 03:36:05,VALID,998.642,VALID,0,VALID,91.1892,VALID,0,VALID,22.4899,VALID,17,VALID,0.873828,
2011-07-31, 03:37:05,VALID,998.64,VALID,0,VALID,91.1511,VALID,0.112286,VALID,22.4899,VALID,17,VALID,0.865234,
2011-07-31, 03:38:05,VALID,998.631,VALID,0,VALID,91.1587,VALID,0,VALID,22.5306,VALID,17,VALID,0.980469,
2011-07-31, 03:39:05,VALID,998.647,VALID,0,VALID,91.174,VALID,0,VALID,22.5306,VALID,17,VALID,0.703125,
2011-07-31, 03:40:05,VALID,998.627,VALID,0,VALID,91.0366,VALID,0,VALID,22.4704,VALID,17,VALID,0.886719,
2011-07-31, 03:41:05,VALID,998.621,VALID,0,VALID,91.0137,VALID,0,VALID,22.4509,VALID,17,VALID,0.695703,
2011-07-31, 03:42:05,VALID,998.581,VALID,0,VALID,91.0977,VALID,0,VALID,22.4721,VALID,357,VALID,0.880859,
2011-07-31, 03:43:05,VALID,998.603,VALID,0,VALID,91.1434,VALID,0,VALID,22.4526,VALID,357,VALID,0.626953,
2011-07-31, 03:44:05,VALID,998.589,VALID,0,VALID,91.1587,VALID,0,VALID,22.4314,VALID,357,VALID,0.6875,
2011-07-31, 03:45:05,VALID,998.591,VALID,0,VALID,91.174,VALID,0,VALID,22.4348,VALID,357,VALID,0.750781,
2011-07-31, 03:46:05,VALID,998.599,VALID,0,VALID,91.2197,VALID,0,VALID,22.3941,VALID,357,VALID,0.710938,